Temp
8 8 8 8 8 9 9 9 9 9 9 9 9 9 9 10 10 10 11 11 12 12 13 12 13 13 14 14 14 15 18 17 19 19 20 20 21 18 17 17 17 16 16 15 14
8 8 8 8 9 9 9 9 9 9 9 9 8 9 9 9 9 11 10 10 11 12 11 12 12 12 12 13 14 15 16 17 19 20 20 20 20 19 17 17 16 15 15 15 14
8 8 8 9 9 9 9 9 9 9 9 9 9 8 8 8 9 10 10 11 11 11 11 11 11 12 12 12 13 14 16 17 17 19 20 20 19 17 18 18 17 15 14 14 13
8 8 9 9 9 9 9 9 9 9 9 9 8 7 7 6 10 11 10 10 10 11 11 11 9 11 12 13 13 14 14 17 17 19 19 20 19 18 17 18 16 15 14 14 13
8 8 9 9 9 9 9 9 9 9 9 8 8 7 5 4 10 10 8 9 10 10 10 11 9 10 12 13 13 13 15 16 17 18 18 18 19 19 16 16 15 15 13 13 13
8 8 9 9 9 9 9 9 9 9 8 8 7 6 3 3 10 10 9 8 7 7 8 9 10 11 11 13 14 14 14 16 17 17 18 18 17 16 14 14 14 14 13 13 13
7 8 8 8 8 9 9 8 8 8 8 7 6 4 2 8 9 9 8 8 8 7 7 8 10 10 11 12 13 14 14 16 16 17 17 17 17 17 15 14 14 13 13 14 17
7 7 7 7 8 8 8 7 8 7 6 6 6 3 4 9 9 9 8 8 8 8 7 8 8 8 10 12 12 14 14 14 16 16 16 17 17 18 14 14 14 13 14 14 12
6 6 6 6 6 7 7 7 7 5 5 5 4 2 4 8 9 8 8 8 8 8 8 7 7 8 10 12 13 13 13 14 15 16 16 17 18 18 13 14 14 13 13 13 13
6 6 6 5 5 6 6 7 6 5 4 5 3 2 7 8 7 7 6 6 7 8 6 6 8 9 10 11 12 13 12 13 15 14 17 15 18 15 14 13 14 14 13 14 13
6 6 5 5 5 4 5 7 5 4 5 4 4 4 7 8 7 8 6 5 6 7 8 7 8 9 10 12 13 14 14 14 14 15 15 16 18 16 14 14 14 13 14 14 13
5 5 5 5 4 4 4 2 1 1 1 4 5 4 7 6 5 8 6 6 7 8 8 8 8 10 11 10 11 11 13 14 15 16 16 16 17 16 15 14 14 14 14 14 13
5 6 5 5 5 4 4 3 2 2 2 3 6 6 7 6 6 7 8 7 8 8 8 9 10 10 11 10 10 11 11 13 15 15 15 15 16 14 14 14 14 14 14 13 13
5 5 5 5 5 4 4 3 3 2 3 5 7 7 7 6 7 8 8 8 8 9 9 9 11 10 11 10 11 11 12 13 14 15 15 17 15 15 15 15 14 14 13 13 12
5 4 4 4 4 4 4 4 3 2 3 7 7 7 6 7 7 8 8 8 9 9 9 10 10 10 10 11 12 12 13 13 14 15 15 14 16 17 16 15 14 14 13 13 12
5 4 4 4 4 4 4 4 3 3 2 5 6 6 6 7 7 7 7 8 9 10 10 11 11 11 12 12 12 13 13 13 14 13 13 16 16 16 16 16 15 15 14 13 12
4 4 4 4 3 4 4 3 3 2 4 3 3 5 5 5 6 7 6 6 6 8 9 10 11 12 12 12 12 13 13 12 11 12 13 16 14 18 16 17 17 15 14 13 13
4 3 4 4 4 4 4 4 0 2 2 3 3 4 5 4 5 5 5 4 5 5 7 10 9 11 13 13 12 12 14 13 12 13 14 14 15 17 17 17 17 16 15 13 13
4 3 4 3 4 4 3 -1 -1 -1 0 1 2 3 3 3 3 4 4 2 2 2 3 7 10 11 13 13 14 13 12 15 14 12 15 15 15 16 16 17 17 16 15 14 13
4 3 3 2 3 4 1 0 0 2 2 1 -1 1 -0 2 2 2 2 1 1 0 1 4 7 11 12 13 13 14 15 13 13 12 14 14 16 17 15 16 16 16 15 14 13
4 2 2 3 2 1 -2 -0 0 0 1 1 -0 -1 -0 -0 1 2 1 1 0 0 0 4 5 10 12 12 13 13 13 14 14 13 15 14 16 15 17 16 16 16 15 14 13
2 -2 1 2 -1 -3 -2 -1 -0 -0 0 0 0 0 -1 0 1 1 1 1 -0 -1 1 2 4 6 11 12 14 14 13 14 12 12 12 12 16 14 16 17 16 16 16 15 13
0 0 -0 1 -3 -3 -1 -1 -1 -1 -0 -0 -1 -0 -0 -0 -1 1 1 2 2 1 0 1 4 8 11 12 13 13 13 14 13 13 13 13 15 14 13 14 15 16 16 15 13
1 -4 -1 -1 -3 -2 -2 -2 -1 -1 -1 -1 -1 -0 -1 -1 0 -0 0 1 0 1 0 -1 2 5 10 10 10 12 13 14 14 14 14 14 14 11 10 10 12 15 15 14 13
-1 -5 -5 -4 -3 -2 -2 -2 -2 -2 -2 -1 -1 -1 -2 -2 -1 -0 0 -0 1 -0 2 -1 0 3 5 7 8 9 12 13 14 15 14 16 13 7 8 8 9 12 14 13 13
-3 -5 -4 -4 -3 -2 -2 -2 -2 -2 -2 -1 -2 -2 -2 -3 -2 -2 -1 -1 -1 0 0 -0 1 2 4 9 9 8 8 11 10 8 13 13 9 6 7 8 8 9 13 13 13
-4 -5 -4 -4 -3 -2 -3 -3 -3 -3 -1 -2 -2 -2 -2 -2 -3 -3 -3 -3 -2 -2 -1 -1 -1 1 7 7 10 7 5 6 5 5 6 10 4 5 7 7 6 6 7 7 10
Height
1514 1512 1510 1508 1507 1505 1503 1502 1500 1498 1496 1494 1491 1490 1488 1487 1485 1483 1481 1480 1478 1478 1479 1481 1483 1483 1485 1488 1487 1487 1485 1487 1489 1495 1497 1494 1497 1499 1499 1498 1501 1504 1505 1506 1513
1514 1512 1509 1507 1505 1503 1501 1499 1497 1495 1493 1491 1489 1487 1484 1482 1480 1477 1476 1474 1472 1471 1473 1475 1479 1480 1482 1483 1486 1484 1481 1482 1484 1487 1490 1493 1497 1497 1499 1499 1501 1503 1505 1507 1511
1513 1511 1509 1506 1503 1501 1499 1496 1494 1492 1489 1487 1485 1482 1480 1479 1476 1472 1473 1472 1470 1470 1470 1470 1472 1477 1478 1478 1481 1480 1474 1479 1484 1483 1485 1491 1494 1495 1496 1498 1495 1498 1502 1507 1510
1512 1510 1508 1505 1503 1500 1498 1495 1493 1490 1487 1484 1482 1479 1476 1478 1480 1471 1471 1469 1468 1467 1468 1469 1472 1474 1474 1473 1476 1479 1479 1479 1481 1482 1484 1486 1490 1492 1494 1493 1493 1495 1501 1504 1508
1512 1510 1507 1504 1502 1499 1496 1493 1490 1488 1485 1483 1480 1478 1477 1477 1469 1468 1467 1467 1466 1465 1464 1466 1468 1471 1470 1471 1475 1476 1476 1479 1478 1476 1481 1485 1487 1489 1491 1489 1493 1495 1498 1502 1505
1510 1509 1506 1503 1499 1496 1493 1490 1486 1483 1480 1478 1476 1475 1475 1475 1463 1463 1463 1462 1462 1462 1462 1461 1462 1464 1466 1466 1467 1469 1475 1475 1473 1472 1472 1482 1486 1488 1493 1491 1494 1494 1497 1499 1500
1510 1508 1505 1501 1496 1493 1489 1486 1482 1479 1476 1474 1472 1470 1471 1462 1460 1459 1457 1456 1456 1456 1457 1459 1461 1463 1461 1462 1465 1468 1472 1471 1469 1470 1469 1476 1481 1481 1483 1490 1492 1497 1497 1496 1498
1509 1506 1502 1498 1494 1489 1485 1482 1478 1474 1472 1471 1469 1468 1462 1458 1456 1455 1454 1453 1452 1452 1453 1456 1459 1461 1460 1458 1461 1465 1469 1466 1459 1467 1468 1473 1472 1476 1481 1486 1490 1495 1498 1499 1502
1507 1504 1500 1496 1492 1487 1482 1478 1474 1471 1470 1469 1467 1465 1457 1454 1452 1451 1450 1449 1448 1448 1447 1455 1457 1457 1456 1456 1458 1460 1454 1457 1457 1457 1464 1467 1467 1471 1479 1481 1485 1490 1493 1494 1499
1506 1502 1498 1494 1490 1485 1480 1474 1470 1469 1468 1466 1465 1467 1455 1452 1449 1446 1444 1443 1445 1447 1448 1451 1453 1451 1453 1449 1438 1444 1454 1454 1453 1457 1458 1465 1462 1465 1472 1476 1477 1483 1488 1490 1493
1504 1500 1496 1493 1489 1484 1478 1473 1474 1471 1467 1466 1462 1459 1452 1449 1445 1440 1438 1437 1440 1444 1444 1448 1446 1436 1428 1433 1439 1441 1445 1448 1451 1451 1454 1456 1457 1461 1466 1472 1476 1480 1482 1483 1490
1502 1498 1495 1492 1488 1485 1481 1478 1482 1482 1467 1456 1453 1452 1449 1447 1442 1437 1435 1438 1435 1435 1439 1445 1435 1431 1436 1442 1442 1445 1443 1446 1444 1444 1448 1452 1453 1454 1458 1462 1463 1466 1472 1479 1488
1500 1497 1494 1491 1488 1486 1482 1481 1480 1478 1474 1454 1451 1449 1449 1447 1441 1434 1435 1434 1431 1432 1430 1428 1426 1433 1433 1438 1443 1440 1445 1445 1441 1441 1447 1449 1454 1457 1458 1459 1464 1468 1473 1478 1483
1498 1495 1492 1490 1489 1486 1483 1480 1477 1476 1473 1457 1451 1450 1448 1443 1438 1432 1430 1432 1428 1424 1426 1424 1423 1425 1427 1431 1435 1440 1439 1443 1440 1440 1443 1439 1450 1449 1451 1455 1459 1463 1467 1473 1479
1497 1493 1491 1488 1488 1485 1483 1479 1476 1477 1475 1455 1451 1450 1448 1445 1440 1428 1427 1425 1419 1417 1422 1418 1417 1422 1427 1424 1429 1430 1433 1438 1440 1440 1439 1442 1440 1432 1443 1448 1451 1456 1462 1468 1474
1496 1494 1491 1489 1486 1484 1479 1477 1477 1479 1476 1456 1454 1452 1445 1442 1437 1430 1426 1423 1416 1413 1413 1411 1411 1413 1412 1419 1424 1425 1429 1435 1439 1444 1448 1429 1431 1427 1429 1433 1444 1450 1456 1462 1468
1495 1494 1490 1487 1484 1481 1477 1477 1478 1477 1465 1465 1460 1455 1449 1444 1435 1434 1428 1426 1422 1412 1407 1409 1407 1406 1408 1413 1419 1422 1425 1437 1449 1449 1436 1423 1433 1409 1417 1420 1427 1437 1447 1456 1464
1494 1493 1491 1487 1483 1479 1476 1477 1487 1483 1479 1474 1465 1457 1449 1448 1442 1437 1434 1431 1429 1425 1411 1402 1407 1401 1400 1403 1407 1412 1411 1416 1430 1424 1422 1428 1422 1410 1408 1412 1419 1428 1435 1447 1458
1493 1491 1489 1485 1480 1476 1476 1491 1496 1494 1491 1480 1468 1456 1453 1454 1452 1443 1439 1437 1439 1438 1431 1408 1398 1395 1394 1398 1398 1409 1416 1404 1410 1422 1421 1416 1416 1408 1406 1410 1417 1426 1436 1441 1449
1493 1491 1490 1486 1480 1476 1480 1493 1494 1492 1487 1481 1479 1472 1470 1461 1455 1448 1444 1444 1443 1442 1443 1424 1407 1390 1390 1394 1398 1396 1397 1413 1415 1422 1421 1418 1410 1405 1409 1408 1413 1423 1430 1436 1444
1492 1494 1497 1490 1486 1483 1499 1500 1497 1494 1490 1485 1483 1480 1476 1471 1462 1451 1451 1446 1447 1441 1436 1426 1419 1394 1390 1390 1392 1399 1401 1401 1407 1413 1408 1419 1409 1400 1398 1400 1406 1414 1421 1428 1436
1495 1502 1503 1496 1494 1500 1504 1504 1502 1496 1491 1488 1484 1479 1481 1471 1464 1457 1453 1452 1451 1449 1438 1433 1423 1407 1386 1386 1385 1389 1393 1393 1407 1414 1416 1418 1404 1399 1395 1395 1399 1406 1413 1423 1429
1502 1506 1508 1501 1508 1509 1507 1506 1503 1498 1493 1490 1486 1484 1482 1474 1469 1458 1456 1451 1449 1448 1441 1438 1418 1396 1386 1389 1387 1389 1393 1393 1400 1408 1410 1414 1408 1404 1402 1402 1402 1403 1409 1417 1425
1506 1512 1511 1509 1513 1514 1512 1510 1503 1499 1494 1493 1488 1485 1482 1475 1469 1464 1458 1451 1450 1447 1445 1441 1425 1412 1387 1389 1393 1390 1389 1389 1394 1403 1404 1406 1405 1412 1413 1412 1408 1408 1411 1415 1422
1512 1521 1521 1521 1517 1517 1513 1512 1508 1501 1496 1492 1486 1486 1485 1478 1470 1461 1459 1457 1450 1448 1444 1445 1435 1421 1410 1401 1400 1397 1389 1390 1392 1393 1400 1399 1410 1425 1424 1421 1415 1408 1411 1418 1422
1518 1522 1523 1522 1521 1518 1516 1513 1509 1502 1500 1490 1488 1482 1480 1476 1473 1465 1463 1463 1456 1449 1448 1448 1435 1428 1412 1390 1393 1399 1402 1398 1403 1411 1401 1403 1422 1433 1429 1426 1419 1414 1413 1418 1423
1522 1523 1524 1526 1524 1520 1522 1518 1511 1507 1497 1494 1489 1481 1471 1467 1467 1463 1461 1461 1460 1458 1454 1451 1445 1434 1395 1400 1392 1411 1425 1422 1430 1430 1426 1414 1439 1433 1428 1427 1424 1425 1423 1424 1426
Wind_Speed
16 16 16 16 16 16 16 17 17 17 18 20 21 22 21 22 23 24 26 14 20 16 15 17 8 11 19 14 10 7 9 14 22 17 8 3 4 2 1 9 5 8 8 16 31
15 16 17 18 18 19 19 20 20 21 21 20 20 21 23 23 23 26 12 5 9 17 20 18 18 8 8 9 10 8 10 15 11 10 8 9 3 5 4 10 4 8 9 23 35
16 17 18 19 20 20 21 21 22 23 23 23 24 25 26 23 19 2 3 4 8 14 9 15 17 14 7 8 12 9 15 11 11 19 17 12 6 4 10 8 10 19 27 35 39
16 17 17 18 18 18 18 20 21 22 23 25 26 27 26 20 6 6 9 12 19 19 13 15 8 9 7 10 9 9 13 16 10 17 11 9 9 4 8 2 12 25 31 40 40
15 16 16 17 17 18 18 19 19 20 20 22 22 23 18 10 19 12 13 13 16 18 11 9 16 10 12 7 10 12 9 20 16 16 15 11 12 7 5 4 22 27 34 43 43
16 16 16 17 19 21 21 19 18 19 20 20 19 17 9 8 14 9 18 24 21 15 11 13 12 21 7 12 17 8 19 13 28 17 17 15 8 11 8 20 27 34 40 42 42
17 17 17 18 21 22 21 19 19 21 18 16 14 11 9 23 17 20 20 19 16 16 19 15 18 16 10 3 21 13 7 18 20 25 13 13 11 11 16 27 32 32 38 43 42
19 18 19 20 23 24 22 21 22 19 14 11 12 7 10 8 13 9 7 4 8 11 17 15 13 14 9 6 5 16 8 15 16 15 11 23 23 15 18 31 29 32 33 27 24
20 20 20 21 24 23 24 23 19 14 10 11 9 5 11 13 15 13 16 18 15 13 10 14 13 12 10 6 10 13 12 19 8 24 11 19 18 16 23 30 30 31 28 23 18
20 20 18 20 21 22 24 21 10 10 7 10 4 4 6 13 18 20 19 23 12 10 2 11 9 8 4 13 17 17 13 8 17 10 20 19 12 15 28 27 31 30 26 25 21
21 20 16 19 15 21 27 15 10 3 18 9 12 10 26 19 30 11 15 9 11 6 8 15 8 17 31 23 6 15 11 13 13 11 20 23 21 17 25 27 22 25 28 24 26
21 18 15 18 10 19 20 14 8 10 14 16 12 19 20 17 12 15 3 7 7 9 10 7 20 18 11 15 13 4 11 7 7 14 14 20 24 18 20 25 33 33 30 28 26
21 17 14 17 11 18 15 16 15 14 6 13 7 10 8 14 9 15 4 6 6 9 19 20 8 15 12 17 19 18 10 7 5 10 6 16 22 11 16 16 20 19 24 22 29
20 15 13 16 8 19 13 22 18 5 4 5 3 2 10 17 7 10 15 10 7 13 14 15 16 16 19 18 18 20 18 14 1 14 10 18 10 19 18 20 19 25 23 27 28
17 11 11 15 18 17 19 17 4 2 5 9 5 7 28 6 16 1 15 9 14 9 8 11 17 15 14 19 19 10 15 20 12 4 4 14 6 16 20 19 20 21 26 28 32
15 8 14 16 18 19 18 10 5 1 6 5 9 17 20 8 12 13 9 10 7 10 8 15 5 11 17 15 19 10 12 18 13 8 6 12 12 10 18 24 22 24 30 31 31
9 6 16 18 23 19 16 1 2 3 12 8 11 18 17 13 10 12 11 9 4 4 10 6 12 10 5 17 16 16 15 7 8 6 9 10 11 9 21 22 26 25 31 34 30
7 6 19 18 18 18 13 1 1 7 8 18 15 19 7 15 9 15 9 6 11 10 3 10 10 10 13 15 12 24 18 7 18 15 15 5 10 7 17 23 33 34 37 34 33
7 1 27 25 19 16 4 5 4 6 11 14 18 7 5 11 8 10 11 8 8 15 6 3 9 4 14 5 13 12 12 10 5 3 9 8 3 6 6 17 20 25 22 32 35
7 2 35 21 18 8 7 5 4 13 13 11 10 10 9 13 11 11 8 5 9 10 11 4 4 8 12 7 8 16 15 9 2 8 9 7 12 7 9 15 17 18 24 30 33
8 7 32 17 18 21 4 5 5 18 18 9 7 8 10 15 15 6 8 4 15 14 14 6 4 1 8 12 13 6 11 7 5 1 7 6 10 5 13 16 17 20 29 31 34
22 5 30 9 13 4 4 5 11 13 13 7 7 9 9 14 10 6 7 4 7 15 9 4 4 5 14 2 13 14 9 17 7 8 2 1 2 2 11 15 17 24 32 31 37
6 6 17 26 5 5 7 11 11 14 12 9 6 9 14 8 7 10 9 14 8 10 6 10 4 3 6 4 5 14 8 13 5 3 4 1 2 10 9 1 15 20 26 30 34
6 4 7 15 12 10 7 11 14 16 11 11 8 9 16 13 10 11 12 8 26 10 9 13 4 4 3 3 3 6 15 15 12 8 10 4 4 12 15 14 12 10 17 25 30
8 4 4 4 8 8 9 10 13 13 6 11 4 14 14 8 17 4 7 17 11 3 11 6 4 11 12 11 3 5 7 15 17 11 14 7 4 8 12 14 14 4 13 19 25
7 5 5 6 8 9 11 11 14 19 5 10 13 19 16 9 13 19 16 12 8 8 10 9 4 11 3 7 11 16 16 10 8 4 3 16 4 11 9 12 21 22 8 15 20
14 7 2 6 5 6 7 10 13 19 10 13 19 19 18 12 14 22 27 25 19 14 11 5 7 8 4 6 5 10 11 13 16 15 4 4 4 13 9 12 23 22 20 17 7
Wind_Direction
358 356 355 354 353 349 347 344 341 337 333 330 328 325 322 320 319 315 310 290 279 256 234 235 244 225 225 222 209 192 205 217 215 220 223 190 220 129 215 154 140 160 138 165 161
358 357 356 354 352 348 345 343 340 338 335 332 327 322 321 323 319 305 290 285 285 262 224 222 225 201 178 205 205 205 216 211 217 202 186 160 209 152 140 161 119 122 143 162 162
1 359 355 351 347 343 340 337 334 332 328 326 325 324 323 329 329 304 127 32 2 350 270 218 207 208 189 182 201 209 225 197 212 193 164 187 174 163 155 196 188 165 150 160 163
0 355 351 345 341 336 332 328 326 322 321 321 322 322 325 338 318 318 265 293 313 318 310 234 210 194 204 202 194 230 231 208 208 192 178 202 210 204 189 207 193 164 161 164 165
358 352 347 341 334 330 327 325 319 312 310 310 311 313 321 318 287 301 258 281 298 307 289 261 206 202 208 197 202 216 221 206 197 182 196 185 207 211 194 190 173 173 169 167 170
355 347 341 336 334 332 331 329 319 313 310 311 311 308 304 274 305 286 283 291 289 287 275 225 217 209 236 220 197 190 209 220 217 215 195 200 174 161 156 151 158 167 170 172 177
351 342 338 336 338 336 334 332 325 319 314 318 311 284 267 277 305 296 301 305 296 266 249 235 218 199 214 211 221 210 193 220 223 219 199 188 209 204 167 169 166 175 177 183 185
346 342 339 341 342 337 336 339 327 318 322 324 317 277 255 351 336 317 301 338 356 339 247 231 224 227 218 219 137 204 215 222 213 195 202 194 222 221 172 169 181 186 189 194 201
344 343 342 343 343 339 338 333 323 317 317 320 314 277 268 321 314 302 288 282 307 329 256 221 207 212 199 201 187 192 218 212 210 199 178 199 212 199 184 185 186 192 197 204 199
344 344 344 346 349 351 349 342 330 310 310 315 294 283 258 312 307 296 279 272 264 297 133 188 197 195 186 194 202 189 209 209 206 188 201 191 195 166 187 187 193 189 199 194 190
345 343 346 349 357 2 359 5 359 310 311 268 265 265 285 311 308 314 297 226 196 186 186 199 202 201 199 200 181 191 204 220 207 188 181 197 199 186 188 201 195 188 191 190 193
343 345 348 348 351 6 4 40 21 330 304 307 291 264 288 307 303 328 196 203 167 199 174 187 224 220 210 197 213 195 212 223 204 193 195 192 197 201 186 197 199 196 192 189 184
343 347 345 349 342 352 353 3 343 330 282 296 297 285 335 316 289 297 220 204 217 194 190 203 228 191 172 185 203 229 209 206 226 169 196 175 204 191 206 211 209 207 201 189 192
345 346 341 350 350 342 337 336 324 284 295 279 316 35 340 317 273 304 272 228 212 220 210 218 214 192 187 188 190 209 218 232 221 168 192 191 201 207 198 207 206 206 194 187 194
347 346 345 351 344 343 330 332 331 157 314 351 334 329 336 305 315 249 321 230 239 200 192 210 194 198 200 210 191 209 192 216 225 244 213 195 231 199 196 203 208 204 197 190 192
348 350 349 347 347 344 337 333 148 21 253 349 333 345 336 330 327 320 324 262 263 227 221 219 197 186 208 203 193 181 171 197 224 244 258 220 218 196 193 206 199 208 199 192 188
352 21 6 357 350 342 336 210 289 194 344 4 326 331 325 346 332 348 337 25 14 234 211 204 217 213 178 192 188 197 179 153 184 195 224 205 207 233 194 198 198 196 193 190 187
336 5 3 1 342 336 332 79 74 3 3 324 325 316 323 9 334 327 357 345 30 1 284 206 218 196 202 184 180 200 186 175 172 208 203 186 216 214 198 203 198 197 191 188 187
352 156 11 4 353 336 333 54 27 358 336 328 317 312 343 353 336 342 351 348 30 16 344 283 220 193 191 180 168 180 200 198 164 70 172 197 231 277 212 197 201 195 184 185 188
6 311 14 7 6 22 62 68 23 360 337 346 9 5 359 339 337 341 358 55 355 359 341 287 273 215 191 165 186 191 183 197 224 163 189 190 192 181 179 198 201 184 190 190 191
41 76 12 19 45 58 60 21 341 348 0 343 346 344 345 342 321 314 349 324 12 335 324 314 266 22 154 195 185 172 193 214 154 200 204 170 207 213 183 196 196 193 196 193 193
57 61 23 20 50 32 42 21 345 348 347 350 305 342 348 317 306 323 322 327 22 335 330 348 297 264 195 169 197 197 196 197 190 194 139 286 138 278 217 196 194 194 197 195 197
67 83 28 45 53 17 358 6 354 355 330 354 324 357 348 309 315 336 330 312 336 341 335 350 275 258 159 147 153 189 187 192 174 143 190 134 157 29 33 332 221 206 197 194 194
59 27 17 38 44 30 358 8 354 342 321 337 297 353 346 326 330 302 306 311 332 332 331 332 289 310 200 119 28 159 190 189 182 195 188 225 108 15 18 14 359 245 207 192 187
50 67 25 360 4 10 15 5 355 354 318 324 311 339 330 300 312 278 316 328 326 38 359 17 289 343 300 269 264 42 194 176 191 189 183 182 117 9 359 352 350 322 182 183 184
63 31 10 6 353 8 14 359 346 339 301 326 323 322 315 282 279 292 300 313 293 326 352 354 296 326 263 92 121 71 37 115 65 21 24 125 99 2 0 28 40 37 136 175 188
40 47 66 6 357 14 0 338 318 335 316 294 313 310 305 299 278 272 278 272 264 287 302 309 334 336 124 344 137 42 9 72 78 50 26 110 351 339 3 29 38 36 45 50 83